Volver al catálogo

STARLINK-37849

ActivoComunicacionesSSO
NORAD 69499·PAYLOAD·🇺🇸 United States

Lanzado Jun 11, 2026 desde Vandenberg Space Force Base

Loading…

Próximos Pases (próximas 24 horas)

TLE

ActualizadoSource: CelesTrak SupGP

Época: Sep 14, 2026, 21:14 UTC

1 69499C 26131X   26257.88520833  .00027384  00000+0  85023-3 0  2570
2 69499  97.2829 278.9096 0001308  89.5051 212.2768 15.33419271    12

Sigue STARLINK-37849 en tiempo real con AllMySat

Download on the App Store